Briesen Brand Airport EDUC

Flugplatz Daten

Name: Briesen Brand Airport

Ident: EDUC

Lat: 52,03279877

Long: 13,74919987

Platzhöhe: 230 ft

IataCode:

City:

Metar

2022/08/15 06:00
AYPY 150600Z 18015G20KT 9999 SHRA BKN015 OVC030 27/24 Q1008 RMK/VIS REDUCED 6KM TO E IN SHRA

Taf

Gewünschte Webcam nicht vorhanden? Dann fügen Sie eine hinzu. Sie wird dann so schnell wie möglich freigeschaltet
Url: Title: